Location: Allonville
(48.1787°N, 1.5286°E)
Time: 22:36:43
(UTC+00:00)

Daily predictions for brighter satellites

Satellite Brightness Start Highest point End
(mag) Time Altitude Azimuth Time Altitude Azimuth Time Altitude Azimuth
Cosmos 1898 Rocket 4.4 18:09:04 10° SW 18:14:09 55° WNW 18:19:16 10° NNE
Meteor 2-9 Rocket 4.4 18:10:28 10° S 18:16:18 86° W 18:22:04 10° N
Cosmos 1300 Rocket 4.0 18:15:37 10° SSE 18:19:45 40° E 18:23:55 10° NNE
Sich 1 Rocket 3.6 18:19:32 10° S 18:24:01 71° E 18:28:36 10° NNE
NOSS 2-2 (E) 3.7 18:21:02 10° SW 18:24:33 62° NW 18:28:37 10° NE
CENTAUR R/B 3.3 18:16:48 10° NW 18:24:40 65° NE 18:33:22 10° SE
Cosmos 1833 Rocket 4.2 18:21:51 10° N 18:25:56 20° NE 18:30:00 10° E
Cosmos 2298 Rocket 4.2 18:20:56 10° S 18:26:04 51° ESE 18:31:14 10° NNE
Cosmos 1975 4.0 18:23:21 10° SSW 18:27:19 49° WNW 18:31:18 10° N
Iridium 4 Rocket 4.1 18:23:17 10° SSW 18:28:28 69° W 18:34:08 10° N
CSL-04 Debris 4.2 18:25:22 10° SSE 18:30:41 68° ENE 18:36:04 10° N
Helios 1A Rocket 4.1 18:28:31 10° S 18:32:31 47° W 18:36:33 10° NNW
CSL-04 Rocket 3.7 18:27:15 10° SSE 18:32:39 67° ENE 18:38:09 10° N
ATLAS 2AS CENTAUR R/B 3.8 18:27:38 10° SSE 18:34:07 29° ESE 18:40:36 10° NE
Cosmos 1025 Rocket 3.1 18:29:45 10° N 18:34:07 61° ENE 18:38:28 10° SSE
Okean 2 Rocket 3.1 18:29:51 10° S 18:34:15 58° E 18:38:39 10° NNE
Cosmos 1937 Rocket 4.5 18:29:12 10° SW 18:34:18 51° WNW 18:39:23 10° NNE
NOSS 2-2 (D) 3.6 18:30:55 10° SW 18:34:24 63° NW 18:38:24 10° NE
YAOGAN 1 2.7 18:30:54 10° SSE 18:35:13 84° WSW 18:39:35 10° NNW
ATLAS 3B R/B 3.6 18:30:35 10° NW 18:36:45 35° NNE 18:42:35 12° E
SWAS 4.5 18:35:31 10° NNW 18:39:48 64° ENE 18:44:02 10° SE
Abrixas rocket 1.9 18:37:13 10° W 18:40:04 70° SSW 18:42:11 16° ESE
Cosmos 1513 Rocket 4.4 18:35:38 10° S 18:41:49 72° E 18:47:57 10° NNE
CREW DRAGON DEMO-1 DEB 2.7 18:38:58 10° WNW 18:42:00 87° NNE 18:44:16 16° ESE
Cosmos 1536 Rocket 3.6 18:39:28 10° N 18:43:54 58° ENE 18:48:18 10° SSE
Cosmos 1125 Rocket 3.7 18:41:39 10° S 18:46:43 48° ESE 18:51:49 10° NNE
SJ-6B 3.8 18:48:31 16° ESE 18:50:37 26° ENE 18:53:47 10° N
CZ-4 R/B 2.7 18:48:50 10° S 18:52:52 45° W 18:56:54 10° NNW
Cosmos 2150 Rocket 4.0 18:48:12 10° SSW 18:53:36 79° ESE 18:59:05 10° NNE
SJ-11-01 4.3 18:49:10 10° SSE 18:53:53 89° E 18:58:36 10° NNW
USA 238 DEB 4.1 18:46:51 10° NW 18:54:04 75° SW 19:01:33 10° SSE
USA 238 4.1 18:46:58 10° NW 18:54:10 76° SW 19:01:40 10° SSE
CZ-2C R/B 3.4 18:49:34 10° S 18:54:57 77° WSW 19:00:40 10° NNW
Cosmos 1464 Rocket 4.0 18:49:02 10° S 18:55:10 86° E 19:01:24 10° N
Cosmos 1674 2.9 18:52:30 10° N 18:56:17 50° ENE 19:00:01 10° SSE
Okean-O 4.2 18:52:38 10° SSW 18:56:46 38° W 19:00:56 10° NNW
Cosmos 1092 Rocket 4.2 18:51:15 10° N 18:57:12 47° ENE 19:03:08 10° SSE
Cosmos 2285 Rocket 4.2 18:51:25 10° S 18:57:26 50° ESE 19:03:33 10° NNE
MOS 1 Rocket 3.0 18:58:39 10° NNE 19:03:02 67° ESE 19:07:17 10° S
FREGAT/IRIS 3.6 19:04:41 23° NE 19:04:41 23° NE 19:06:30 10° NNE
ARGOS 3.1 19:05:10 10° SSE 19:10:32 88° ENE 19:15:58 10° NNW
CZ-2C R/B 3.0 19:07:55 10° NNE 19:13:15 44° E 19:18:34 10° S
Cosmos 1340 Rocket 4.0 19:15:11 24° ENE 19:15:11 24° ENE 19:17:50 10° NE
Cosmos 1733 3.6 19:13:48 18° SSE 19:16:10 38° E 19:19:44 10° NNE
Cosmos 2151 Rocket 3.8 19:12:27 10° SSW 19:16:55 73° W 19:21:27 10° N
MOS 1 4.4 19:13:05 14° SE 19:18:00 59° ENE 19:23:37 10° N
Lacrosse 5 rocket 3.0 19:14:17 10° NW 19:18:03 27° N 19:20:43 16° ENE
Cosmos 2082 Rocket 3.4 19:14:35 10° N 19:19:16 26° NE 19:21:17 21° ENE
BREEZE-M DEB (TANK) 3.8 19:19:04 10° W 19:22:10 43° SSW 19:27:36 17° SE
BREEZE-M R/B 4.0 19:11:48 10° WSW 19:22:52 71° SSE 19:24:25 32° E
DMSP B5D2-2 4.3 19:18:01 10° NNE 19:23:06 44° E 19:28:08 10° S
Cosmos 494 Rocket 4.2 19:19:14 10° NNW 19:24:29 71° WSW 19:29:43 10° SSE
Meteor 1-15 Rocket 4.2 19:21:57 10° S 19:27:36 87° E 19:33:25 10° NNE
Cosmos 1805 3.1 19:24:08 10° S 19:28:01 75° E 19:31:57 10° NNE
OBJECT-B 1.8 19:28:48 32° NE 19:28:48 32° NE 19:31:16 10° N
Milstar 3 Cent rocket 4.4 19:29:21 10° SSW 19:30:51 11° S 19:32:14 10° S
Ariane Rocket 2.9 19:28:06 15° SSE 19:32:24 84° ENE 19:37:32 10° NNW
SL-08 RB Rocket 3.8 19:27:53 10° S 19:32:27 79° WSW 19:37:01 10° NNW
H-2A R/B 3.1 19:29:11 10° S 19:33:57 45° W 19:38:54 10° NNW
Cosmos 1269 Rocket 3.9 19:31:06 10° NNW 19:36:28 85° ENE 19:39:33 26° SSE
Cosmos 1626 1.9 19:37:53 10° N 19:41:37 71° E 19:42:02 63° SE
Okean 1-7 Rocket 4.2 19:37:37 10° N 19:41:50 37° ENE 19:41:50 37° ENE
MetOp-A 4.0 19:40:20 22° SSE 19:43:56 85° ENE 19:49:20 10° NNW
USA 186 2.5 19:42:34 28° SSW 19:43:59 52° W 19:47:14 10° NNW
COSMOS 2406 3.1 19:39:57 10° NNW 19:45:39 73° ENE 19:47:55 38° SE
Cosmos 1844 Rocket 3.5 19:41:10 10° SW 19:46:35 51° WNW 19:52:04 10° NNE
ISS -3.0 19:44:11 10° WNW 19:47:27 44° N 19:47:46 43° NNE
Cosmos 2278 Rocket 2.6 19:45:25 10° S 19:51:32 39° E 19:55:58 10° NE
Lacrosse 4 Rocket 2.2 19:49:21 10° NNW 19:52:52 35° NE 19:52:52 35° NE
Cosmos 1844 4.4 19:48:40 10° SW 19:54:15 56° WNW 19:59:48 10° NNE
Meteor 1-22 Rocket 4.2 19:49:35 10° S 19:55:29 77° E 20:01:35 10° NNE
Meteor 2-5 Rocket 4.0 19:50:21 10° NNW 19:56:00 70° W 20:00:46 15° S
Cosmos 909 Rocket 4.4 19:51:46 10° NNW 19:58:10 49° NE 19:59:55 39° E
Meteor 1-24 Rocket 3.7 19:52:45 10° NNW 19:58:22 85° W 20:01:37 27° S
Exosat Rocket 4.0 19:53:23 10° SW 19:58:37 62° WNW 20:03:38 10° NNE
Okean 1 Rocket 3.8 19:56:16 10° SSW 20:00:40 56° WNW 20:05:07 10° N
SL-14 R/B 3.3 19:57:36 10° NNW 20:01:33 78° W 20:01:55 70° SSW
NOSS 3-4 (A) 3.3 19:55:44 10° SW 20:01:39 85° SE 20:08:03 10° NE
NOSS 3-4 (C) 3.3 19:55:50 10° SW 20:01:45 85° SE 20:08:09 10° NE
Meteor 2-19 Rocket 4.5 19:56:28 10° N 20:02:31 58° ENE 20:03:47 48° ESE
Resurs 01 Rocket 1.8 20:03:26 54° NE 20:03:26 54° NE 20:07:29 10° N
Cosmos 1766 4.3 20:06:06 10° SSW 20:09:52 45° WNW 20:13:43 10° N
Cosmos 1833 Rocket 2.6 20:05:04 10° NNW 20:10:46 84° ENE 20:11:54 59° SE
Cosmos 2251 Rocket 3.7 20:08:23 10° NNW 20:13:41 55° ENE 20:13:44 55° ENE
CENTAUR R/B 4.1 20:07:46 10° NW 20:15:23 44° WSW 20:22:00 16° S
ARIANE 5 R/B 3.7 20:20:05 34° NNE 20:20:05 34° NNE 20:22:51 10° N
SPOT 3 Rocket 3.5 20:20:50 59° S 20:21:47 78° WSW 20:26:58 10° NNW
Cosmos 1634 Rocket 4.3 20:17:53 10° SSW 20:23:59 65° WNW 20:30:12 10° N
ATLAS 2AS CENTAUR R/B 3.0 20:16:28 10° SW 20:24:27 83° NW 20:32:22 10° NE
Resurs 1-3 4.0 20:26:18 58° WSW 20:26:30 58° W 20:30:52 10° NNW
ATLAS 3B R/B 2.7 20:21:14 10° NW 20:28:07 80° SW 20:29:50 55° SSE
Cosmos 1892 Rocket 4.0 20:24:22 10° NNW 20:28:35 57° W 20:28:35 57° W
SPOT 5 4.4 20:33:48 27° NE 20:33:48 27° NE 20:37:04 10° N
Meteor 1-21 Rocket 4.4 20:27:56 10° N 20:33:15 60° NE 20:33:15 60° NE
Cosmos 1655 Rocket 3.8 20:30:59 10° N 20:37:18 82° E 20:37:49 75° SE
Cosmos 1461 4.5 20:36:07 10° NNW 20:39:30 32° NNE 20:39:30 32° NNE
CZ-2C R/B 4.3 20:48:28 10° N 20:53:24 33° WNW 20:58:21 10° SW
Lacrosse 5 rocket 3.0 20:53:34 10° NW 20:56:20 35° NNW 20:56:20 35° NNW
MetOp-B 4.4 20:58:51 64° WNW 20:58:51 64° WNW 21:03:35 10° NNW
OBJECT-B 4.1 21:01:59 13° WNW 21:01:59 13° WNW 21:02:43 10° NW
Cosmos 2098 Rocket 4.0 20:55:01 10° NNW 21:01:42 68° W 21:01:45 68° W
Cosmos 2082 Rocket 2.6 20:58:16 10° NNW 21:03:08 60° WNW 21:03:08 60° WNW
Spot 2 Rocket 4.4 21:05:26 46° NNW 21:05:26 46° NNW 21:08:57 10° NNW
Terra 3.8 21:21:44 22° N 21:21:44 22° N 21:23:31 10° N
Lacrosse 4 Rocket 4.2 21:28:12 10° NW 21:29:10 15° WNW 21:29:10 15° WNW
Cosmos 2278 Rocket 3.4 21:33:01 30° W 21:34:49 38° NW 21:40:05 10° NNE
Resurs 01 Rocket 4.2 21:41:00 17° WNW 21:41:00 17° WNW 21:43:00 10° NW
ATLAS 2AS CENTAUR R/B 4.4 22:09:24 10° W 22:16:32 34° NNW 22:23:30 10° NE
